DateTimeUTC,F1_A11,F1_S11,BsB_S11,BsG_S11,BsR_S11,BbsB_S11,BbsG_S11,BbsR_S11,BaB_A11,BaG_A11,BaR_A11,Tu_S11,T_S11,Uu_S11,U_S11,P_S11,T1_A11
2021-06-21T20:00:00Z,00000200,20000000,,,,,,,0000.15,0000.24,0000.15,19.5,24.4,04.0,03.0,0667.7,31.2
2021-06-21T20:01:00Z,00000200,20000000,,,,,,,0000.35,0000.37,-000.13,19.5,24.5,04.1,03.0,0667.7,31.2
2021-06-21T20:02:00Z,00000200,20000000,,,,,,,-000.41,-000.31,-000.06,19.4,24.5,04.1,03.0,0667.7,31.2
2021-06-21T20:03:00Z,00000200,60000000,,,,,,,0000.24,0000.31,-000.04,19.4,24.5,04.1,03.0,0667.8,31.2
2021-06-21T20:04:00Z,00000200,40000000,0001.41,0000.85,0000.29,0000.57,0000.17,0000.27,0000.52,0000.49,0000.62,19.4,24.5,03.9,02.9,0668.7,31.2
2021-06-21T20:05:00Z,00000200,00000000,0000.23,0000.97,0000.48,0000.18,0000.41,0000.34,0000.78,0000.28,0000.48,19.4,24.5,03.8,02.8,0668.8,31.1
2021-06-21T20:06:00Z,00000200,00000000,0000.82,0000.68,0000.43,-000.18,0000.03,0000.25,0000.17,0000.84,0000.11,19.4,24.5,03.8,02.8,0668.9,31.1
2021-06-21T20:07:00Z,00000200,00000000,0001.76,0001.17,0000.31,0000.72,0000.11,0000.39,0000.99,0000.12,0000.28,19.4,24.6,03.8,02.8,0668.9,31.1
2021-06-21T20:08:00Z,00000200,00000000,0000.98,0000.75,0000.12,-000.03,0000.13,0000.20,0000.55,0000.74,0001.01,19.3,24.6,03.8,02.7,0669.0,31.1
2021-06-21T20:09:00Z,00000200,00000000,0001.60,0000.74,0000.31,0000.17,0000.22,0000.19,0000.34,0000.39,0000.09,19.3,24.6,03.8,02.7,0669.0,31.1
2021-06-21T20:10:00Z,00000200,00000000,0001.20,0000.51,0000.42,-000.28,0000.20,0000.35,0000.34,0000.48,0000.65,19.3,24.6,03.8,02.7,0669.0,31.1
2021-06-21T20:11:00Z,00000200,00000000,0000.55,0000.76,0000.42,0000.56,0000.29,0000.27,0000.68,0000.41,0000.14,19.3,24.6,03.7,02.7,0669.0,31.1
2021-06-21T20:12:00Z,00000200,00000000,0001.43,0000.98,0000.61,0000.75,0000.34,0000.27,0000.52,0000.45,0000.43,19.2,24.6,03.8,02.7,0669.0,31.1
2021-06-21T20:13:00Z,00000200,00000000,0000.79,0001.08,0000.15,0000.26,0000.30,0000.25,0000.52,0000.78,0000.29,19.2,24.6,03.8,02.7,0669.0,31.1
2021-06-21T20:14:00Z,00000200,00000000,0001.05,0000.66,0000.52,0000.47,0000.16,0000.04,0000.25,0000.33,0000.08,19.2,24.7,03.8,02.7,0669.0,31.1
2021-06-21T20:15:00Z,00000200,00000000,0001.39,0000.75,0000.48,0001.04,0000.20,0000.20,0000.71,0000.28,0000.32,19.1,24.7,03.8,02.7,0669.0,31.2
2021-06-21T20:16:00Z,00000200,00000000,0000.75,0000.93,0000.30,-000.01,0000.33,-000.08,0000.14,0000.14,0000.59,19.1,24.7,03.7,02.7,0669.0,31.1
2021-06-21T20:17:00Z,00000200,00000000,0001.48,0000.69,0000.27,0000.17,0000.34,0000.14,0000.58,0000.83,0000.40,19.1,24.7,03.7,02.6,0669.0,31.1
2021-06-21T20:18:00Z,00000200,00000000,0001.02,0001.14,0000.10,-000.02,0000.15,-000.02,0000.78,0000.26,0000.43,19.1,24.7,03.8,02.7,0669.0,31.1
2021-06-21T20:19:00Z,00000200,00000000,0001.15,0000.88,0000.19,0000.91,0000.15,0000.09,0000.52,0000.68,0000.41,19.1,24.7,03.7,02.6,0669.0,31.1
2021-06-21T20:20:00Z,00000200,00000000,0001.12,0000.68,0000.34,0000.49,0000.29,0000.41,0000.85,0000.60,0000.27,19.0,24.7,03.8,02.7,0669.0,31.1
2021-06-21T20:21:00Z,00000200,00000000,0000.93,0000.78,0000.61,0000.44,0000.22,0000.22,0000.40,0000.14,0000.35,19.0,24.7,03.7,02.6,0669.0,31.1
2021-06-21T20:22:00Z,00000200,00000000,0001.02,0000.91,0000.33,0000.56,0000.33,0000.17,0000.53,0000.83,0000.20,19.0,24.8,03.7,02.6,0669.0,31.1
2021-06-21T20:23:00Z,00000200,00000000,0000.64,0001.01,0000.18,0000.14,0000.24,-000.02,0000.26,0000.17,0000.32,19.0,24.8,03.7,02.6,0669.0,31.1
2021-06-21T20:24:00Z,00000200,00000000,0000.97,0000.66,0000.32,-000.05,0000.38,0000.11,0000.83,0000.30,0000.55,18.9,24.8,03.7,02.6,0669.1,31.1
2021-06-21T20:25:00Z,00000200,00000000,0000.64,0001.17,0000.44,0000.63,0000.01,0000.24,0000.31,0000.41,0000.15,18.9,24.8,03.7,02.6,0669.0,31.1
2021-06-21T20:26:00Z,00000200,00000000,0001.52,0001.31,0000.44,0000.20,0000.34,0000.75,0000.55,0001.06,0000.89,18.9,24.8,03.7,02.6,0669.1,31.1
2021-06-21T20:27:00Z,00000200,00000000,0001.03,0000.84,0000.57,0000.63,-000.00,0000.36,0000.44,0000.68,0000.22,18.9,24.8,03.7,02.6,0669.1,31.1
2021-06-21T20:28:00Z,00000200,00000000,0001.77,0001.05,0000.50,0000.88,0000.09,0000.19,0001.00,0000.61,0000.80,18.9,24.8,03.7,02.6,0669.0,31.1
2021-06-21T20:29:00Z,00000200,00000000,0001.35,0000.92,0000.58,0000.13,-000.05,0000.09,0000.44,0000.00,0000.08,18.9,24.8,03.7,02.6,0669.0,31.1
2021-06-21T20:30:00Z,00000200,00000000,0001.01,0001.26,0000.63,0000.25,0000.13,0000.06,0000.87,0000.95,0000.61,18.9,24.8,03.6,02.5,0669.1,31.1
2021-06-21T20:31:00Z,00000200,00000000,0000.89,0001.16,0000.20,0000.02,0000.14,-000.01,0000.17,0000.38,0000.30,18.8,24.8,03.6,02.5,0669.1,31.1
2021-06-21T20:32:00Z,00000200,00000000,0000.90,0001.05,0000.27,-000.00,0000.05,0000.23,0000.71,0000.60,0000.35,18.8,24.8,03.7,02.6,0669.1,31.1
2021-06-21T20:33:00Z,00000200,00000000,0001.25,0000.96,0000.25,0000.12,0000.12,-000.01,0000.68,0000.34,0000.48,18.8,24.8,03.7,02.6,0669.1,31.1
2021-06-21T20:34:00Z,00000200,00000000,0001.61,0000.87,0000.40,-000.33,0000.00,0000.18,0001.02,0001.00,0000.54,18.8,24.8,03.8,02.6,0669.1,31.1
2021-06-21T20:35:00Z,00000200,00000000,0001.01,0000.85,0000.31,-000.23,0000.18,0000.12,0000.16,0000.36,0000.48,18.8,24.8,03.7,02.6,0669.1,31.1
2021-06-21T20:36:00Z,00000200,00000000,0000.94,0000.91,0000.40,-000.20,0000.00,0000.31,0001.02,0000.50,0000.31,18.8,24.8,03.9,02.7,0669.1,31.1
2021-06-21T20:37:00Z,00000200,00000000,0001.94,0000.99,0000.55,0000.27,0000.19,0000.37,0000.60,0000.91,0000.49,18.8,24.8,03.8,02.6,0669.1,31.1
2021-06-21T20:38:00Z,00000200,00000000,0001.15,0001.19,0000.51,-000.10,0000.19,0000.30,0000.02,-000.00,0000.32,18.8,24.8,03.8,02.6,0669.1,31.1
2021-06-21T20:39:00Z,00000200,00000000,0001.61,0001.01,0000.52,0000.65,0000.26,0000.25,0000.84,0001.12,0000.74,18.7,24.8,03.8,02.7,0669.1,31.1
2021-06-21T20:40:00Z,00000200,00000000,0000.91,0001.12,0000.33,0000.55,0000.32,0000.17,0000.36,0000.44,-000.07,18.7,24.8,03.8,02.6,0669.1,31.1
2021-06-21T20:41:00Z,00000200,00000000,0000.74,0001.02,0000.65,0000.28,-000.07,0000.51,0001.09,0000.21,0000.69,18.7,24.8,03.8,02.6,0669.1,31.1
2021-06-21T20:42:00Z,00000200,00000000,0001.14,0001.02,0000.37,0000.30,0000.27,0000.34,0000.37,0000.76,0000.34,18.7,24.8,03.8,02.6,0669.1,31.1
2021-06-21T20:43:00Z,00000200,00000000,0001.36,0001.15,0000.57,0000.23,0000.20,0000.35,0000.21,0000.30,0000.30,18.7,24.8,03.8,02.6,0669.1,31.1
2021-06-21T20:44:00Z,00000200,00000000,0001.45,0000.99,0000.51,-000.15,0000.05,0000.25,0001.50,0001.34,0000.68,18.7,24.8,03.8,02.6,0669.2,31.1
2021-06-21T20:45:00Z,00000200,00000000,0001.43,0001.23,0000.75,-000.03,0000.22,0000.21,0000.22,0000.47,0000.30,18.8,24.9,03.9,02.7,0669.2,31.1
2021-06-21T20:46:00Z,00000200,00000000,0001.52,0000.90,0000.32,0000.24,0000.22,0000.31,0000.39,0000.13,0000.30,18.9,24.9,03.9,02.7,0669.2,31.1
2021-06-21T20:47:00Z,00000200,00000000,0001.01,0000.94,0000.32,-000.09,0000.10,0000.17,0000.66,0000.26,0000.64,18.9,25.0,03.8,02.6,0669.2,31.1
2021-06-21T20:48:00Z,00000200,00000000,0001.08,0000.94,0000.19,0000.36,0000.34,0000.18,0000.61,0000.59,-000.02,19.0,25.0,03.8,02.6,0669.1,31.1
2021-06-21T20:49:00Z,00000200,00000000,0001.52,0001.07,0000.51,0000.30,0000.21,0000.38,0000.39,0000.54,0000.30,19.0,25.0,03.7,02.6,0669.2,31.1
2021-06-21T20:50:00Z,00000200,00000000,0000.94,0000.96,0000.12,0000.41,0000.12,0000.31,0000.50,0000.95,0001.07,18.9,25.0,03.7,02.6,0669.2,31.1
2021-06-21T20:51:00Z,00000200,00000000,0001.16,0000.79,0000.44,0000.22,0000.34,0000.22,0000.41,0000.54,0000.10,18.9,25.0,03.6,02.5,0669.2,31.1
2021-06-21T20:52:00Z,00000200,00000000,0000.63,0000.92,0000.33,0000.06,0000.15,0000.41,0000.62,0000.04,0000.30,18.9,25.0,03.7,02.5,0669.2,31.1
2021-06-21T20:53:00Z,00000200,00000000,0000.47,0000.74,0000.51,0000.26,0000.14,0000.07,0000.73,0000.58,0000.49,18.9,25.0,03.6,02.5,0669.2,31.1
2021-06-21T20:54:00Z,00000200,00000000,0000.38,0001.03,0000.12,0000.25,0000.20,0000.26,0000.71,0000.65,0000.68,18.8,25.0,03.7,02.5,0669.2,31.1
2021-06-21T20:55:00Z,00000200,00000000,0000.55,0000.62,0000.32,0000.62,-000.06,-000.12,-000.04,0000.39,0000.32,18.8,25.0,03.7,02.5,0669.2,31.1
2021-06-21T20:56:00Z,00000200,00000000,0001.29,0000.99,0000.42,0000.09,0000.22,0000.32,0000.54,-000.01,0000.05,18.8,25.0,03.6,02.5,0669.2,31.1
2021-06-21T20:57:00Z,00000200,40000000,,,,,,,0000.85,0001.08,0000.85,18.9,25.1,03.2,02.2,0669.2,31.1
2021-06-21T20:58:00Z,00000200,60000000,,,,,,,-000.25,-000.44,-000.34,18.6,25.1,03.6,02.4,0668.3,31.1
2021-06-21T20:59:00Z,00000200,20000000,,,,,,,-000.28,0000.13,-000.12,18.6,25.2,03.6,02.4,0668.2,31.1
